Date,TemperatureHighF,TemperatureAvgF,TemperatureLowF,DewpointHighF,DewpointAvgF,DewpointLowF,HumidityHigh,HumidityAvg,HumidityLow,PressureMaxIn,PressureMinIn,WindSpeedMaxMPH,WindSpeedAvgMPH,GustSpeedMaxMPH,PrecipitationSumIn
2013-12-1,61,52,45,41,38,34,80,60,38,30.26,30.15,7,4,14,0.00
2013-12-2,66,51,42,35,28,20,69,42,17,30.15,29.88,9,4,16,0.00
2013-12-3,69,63,51,37,15,2,39,16,6,29.88,29.70,26,13,51,0.00
2013-12-4,68,62,56,41,34,26,52,36,21,29.86,29.70,27,16,63,0.00
2013-12-5,57,52,44,41,33,27,82,49,33,29.92,29.79,23,12,44,0.00
2013-12-6,50,41,28,30,20,11,95,45,21,30.14,29.91,28,10,49,0.00
2013-12-7,36,31,28,34,28,-100,100,94,84,30.14,29.94,8,4,16,0.00
2013-12-8,52,45,29,30,21,14,99,42,27,29.97,29.88,32,17,59,0.00
2013-12-9,53,45,27,29,19,0,53,37,20,30.36,29.95,23,14,42,0.00
2013-12-10,46,33,19,9,0,-9,45,25,10,30.38,30.20,10,4,14,0.00
2013-12-11,53,39,26,19,9,2,50,31,13,30.45,30.22,8,4,12,0.00
2013-12-12,41,37,35,38,31,19,100,79,47,30.45,30.17,7,4,10,0.00
2013-12-13,57,44,32,42,35,32,100,74,42,30.13,29.97,16,7,25,0.00
2013-12-14,53,42,31,32,21,-100,76,48,28,30.37,30.06,9,4,15,0.00
2013-12-15,55,41,27,28,22,19,85,50,24,30.37,30.26,12,6,14,0.00
2013-12-16,61,43,29,26,22,19,71,44,21,30.34,30.24,10,4,14,0.00
2013-12-17,64,46,39,25,23,21,52,41,19,30.37,30.26,6,4,10,0.00
2013-12-18,56,46,35,28,25,22,58,43,30,30.26,29.96,5,2,8,0.00
2013-12-19,67,55,41,27,17,5,55,27,9,29.94,29.73,16,8,43,0.00
2013-12-20,59,48,43,45,35,16,99,66,17,29.79,29.63,16,8,32,0.00
2013-12-21,44,39,36,35,29,-100,95,70,54,29.87,29.53,30,19,56,0.00
2013-12-22,50,42,34,28,24,17,69,51,26,30.25,29.89,17,9,24,0.00
2013-12-23,45,35,30,25,24,21,78,63,42,30.44,30.27,9,4,11,0.00
2013-12-24,52,36,28,26,23,18,71,61,28,30.39,30.17,5,4,10,0.00
2013-12-25,51,41,32,26,24,22,70,52,32,30.40,30.22,11,6,17,0.00
2013-12-26,51,37,27,25,24,23,85,62,34,30.39,30.23,5,4,8,0.00
2013-12-27,52,35,25,26,21,16,85,60,23,30.37,30.24,5,3,6,0.00
2013-12-28,55,42,27,23,16,-100,69,40,25,30.24,29.94,6,3,11,0.00
2013-12-29,47,40,31,25,23,19,67,50,38,30.22,29.94,12,6,20,0.00
2013-12-30,52,34,25,22,21,19,83,62,28,30.35,30.20,7,4,10,0.00
2013-12-31,56,40,28,21,19,18,66,44,22,30.34,30.14,6,4,10,0.00